Regional Weather Roundup
Issued by NWS

Home | Current Version | Previous Version | Text Only | Print | Product List | Glossary On
Versions: 1 2 3 4 5 6 7 8 9 10 11 12 13 14 15 16 17 18 19 20 21 22 23 24 25 26 27 28 29 30 31 32 33 34 35 36 37 38 39 40 41 42 43 44 45 46 47 48 49 50
000
ASUS43 KMKX 311011
RWRWI

WISCONSIN REGIONAL WEATHER ROUNDUP
NATIONAL WEATHER SERVICE MILWAUKEE/SULLIVAN WI
500 AM CDT SUN JUL 31 2016

NOTE: "FAIR" INDICATES FEW OR NO CLOUDS BELOW 12,000 FEET WITH NO
SIGNIFICANT WEATHER AND/OR OBSTRUCTIONS TO VISIBILITY.

WIZ001-002-006>008-014>016-023>028-311100-
NORTHWEST WISCONSIN

CITY           SKY/WX    TMP DP  RH WIND       PRES   REMARKS
SUPERIOR ARPT  PTCLDY    61  61  99 CALM      30.03S
ASHLAND        CLEAR     55  54  96 CALM      30.05S
HAYWARD        CLEAR     63  56  78 CALM      30.06R
SIREN          PTCLDY    64  61  88 SE6       30.03S
CUMBERLAND     MOCLDY    61  57  88 SE3       30.05S
RICE LAKE      CLOUDY    62  57  83 SE6       30.06S
CHETEK         MOCLDY    63  58  84 SE5       30.06S
LADYSMITH      CLEAR     59  55  85 E6        30.08S
EAU CLAIRE     CLOUDY    63  58  83 E5        30.04S
MENOMONIE      CLEAR     62  59  90 E3        30.04F
NEW RICHMOND   PTCLDY    63  62  97 E6        30.02F
OSCEOLA        PTCLDY    64  64 100 E3        30.04S
$$

WIZ003>005-009-010-017-018-311100-
NORTH CENTRAL WISCONSIN

CITY           SKY/WX    TMP DP  RH WIND       PRES   REMARKS
MANITOWISH WTR   N/A     50  50 100 CALM      30.09S FOG
ARBOR VITAE    CLEAR     53  51  94 CALM      30.10S
WOODRUFF       CLEAR     53  51  94 CALM      30.10S
RHINELANDER    FOG       50  49  96 CALM      30.10S VSB 3/4
EAGLE RIVER    MOCLDY    49  49 100 CALM      30.10S FOG
LAND O LAKES   CLEAR     47  46  99 CALM      30.12R FOG
PHILLIPS       CLEAR     56  54  93 CALM      30.08S
TOMAHAWK       FOG       46  45  97 CALM      30.10R VSB 3/4
MEDFORD        CLEAR     53  53 100 CALM      30.09R
MERRILL        CLEAR     48  48 100 CALM      30.10R
$$

WIZ029-030-035-036-043>047-311100-
CENTRAL WISCONSIN

CITY           SKY/WX    TMP DP  RH WIND       PRES   REMARKS
WAUSAU         CLEAR     54  53  97 CALM      30.07S
MOSINEE        CLEAR     54  52  94 CALM      30.09S
MARSHFIELD     CLEAR     58  53  84 CALM      30.07S
STEVENS POINT  CLEAR     51  51  99 CALM      30.08R
WAUPACA        CLEAR     56  56  98 CALM      30.06F
WAUTOMA        CLEAR     54  53  97 CALM      30.07S
WISC RAPIDS    PTCLDY    55  51  86 CALM      30.08R
CAMP DOUGLAS   CLEAR     52  52 100 CALM      30.05F FOG
$$

WIZ011>013-019>022-031-037>040-048>050-311100-
NORTHEAST WISCONSIN

CITY           SKY/WX    TMP DP  RH WIND       PRES   REMARKS
ANTIGO         CLEAR     49  48  99 CALM      30.10R
SHAWANO        CLEAR     57  54  91 CALM      30.07S
OCONTO         PTCLDY    56  56 100 CALM      30.05R
STURGEON BAY   PTCLDY    59  59 100 CALM      30.06R
GREEN BAY      CLEAR     56  56 100 NW3       30.05R
MANITOWOC      CLOUDY    61  58  90 MISG      30.05R
APPLETON       CLEAR     57  55  94 N6        30.05R
CLINTONVILLE   CLEAR     55  54  94 CALM      30.06S
OSHKOSH        CLEAR     58  56  93 NW6       30.05R
$$

WIZ032>034-041-042-053>061-311100-
SOUTHWEST WISCONSIN

CITY           SKY/WX    TMP DP  RH WIND       PRES   REMARKS
LA CROSSE      CLOUDY    66  61  84 E8        30.04R
SPARTA         PTCLDY    55  55 100 CALM      30.06S
VIROQUA        CLOUDY    61  59  94 SE3       30.06S
BOSCOBEL       FOG       62  61  96 CALM      30.05R VSB 1/4
PRAIRIE DU CHI   N/A     62  60  93 CALM      30.03S
PLATTEVILLE    CLEAR     60  60  99 CALM      30.04F
$$

WIZ056-057-062-063-064-067-068-311100-
SOUTH CENTRAL WISCONSIN

CITY           SKY/WX    TMP DP  RH WIND       PRES   REMARKS
REEDSBURG      PTCLDY    55  55 100 CALM      30.05S FOG
BARABOO/DELLS  CLEAR     56  54  94 CALM      30.06R
LONE ROCK      CLEAR     57  55  93 CALM      30.05S
MINERAL POINT  CLEAR     61  59  94 CALM      30.04F
MADISON        CLEAR     57  55  93 NW3       30.04S
MIDDLETON      CLEAR     56  56 100 CALM      30.05S
WATERTOWN      CLEAR     57  57 100 CALM      30.04S
MONROE         CLEAR     61  59  94 N6        30.04R
JANESVILLE     CLEAR     59  57  94 CALM      30.02S
$$

WIZ051-052-058>065-066-070>072-311100-
SOUTHEAST WISCONSIN

CITY           SKY/WX    TMP DP  RH WIND       PRES   REMARKS
MILWAUKEE      MOCLDY    67  62  84 NW6       30.02S
WAUKESHA       CLEAR     59  57  94 CALM      30.05S
MILWAUKEE/TIMM PTCLDY    61  55  82 CALM      30.04S
RACINE         PTCLDY    65  63  93 NW3       30.04R
BURLINGTON       N/A     57  57  99 CALM      30.03R FOG
KENOSHA        CLEAR     64  62  93 NW5       30.02S
FOND DU LAC    CLEAR     57  54  89 CALM      30.05S
SHEBOYGAN      CLOUDY    61  59  93 CALM      30.04R
WEST BEND      MOCLDY    57  55  94 CALM      30.05S
JUNEAU         CLEAR     56  55  96 CALM      30.06S
$$

LSZ147-162-311100-
LAKE SUPERIOR

STATION/POSITION TIME  TEMP    WIND        PRES    WAVE
                       AIR SEA DIR/SP/G            HT/PER
                 (UTC) (F)     (DEG/KT/KT) (MB)    (FT/S)
W MID LAKE BUOY  0950   64 63  170/  8/  8 1016.8S   0
DEVILS ISLAND    1000   67     220/  2/  2 1017.1R
PORT WING        0940   58      CALM  /  2 1017.3R
SAXON HARBOR     0900   65     180/  3/  7 1016.9
$$

LMZ867-665-643>646-311100-
LAKE MICHIGAN

STATION/POSITION TIME  TEMP    WIND        PRES    WAVE
                       AIR SEA DIR/SP/G            HT/PER
                 (UTC) (F)     (DEG/KT/KT) (MB)    (FT/S)
CHAMBERS ISLAND  0900   69      50/  5/  8 1016.9S
N MID LAKE BUOY  0950   69 69  100/ 10/ 12 1017.1R   1/ 3
NORTHPORT PIER   0900   70     100/ 12/ 13 1017.3R
SISTER BAY       0921   63        CALM       N/A
ALGOMA LAKESHORE 0913          340/  7/  7   N/A
KEWAUNEE LAKESHO 0900   61     300/  2/  4 1016.5R
SHEBOYGAN LAKESH 1000   64     320/  4/  5 1017.2R
PORT WASHINGTON  0900   65     320/  5/  7 1017.6R
ATWATER BUOY     1000   65 65  330/  6/  6 1018.3S
MILWAUKEE LAKESH 0910   65     320/  3/  4   N/A
S MID LAKE BUOY  0950   69 73   60/  8/ 10 1015.6R   1/ 5
KENOSHA   LAKESH 1000   66     330/  5/  7 1016.3R
$$

TC  - TEMPERATURE IN CELSIUS
VSB - VISIBILITY IN STATUTE MILES
WCI - WIND CHILL INDEX
HX  - HEAT INDEX




USA.gov is the U.S. government's official web portal to all federal, state and local government web resources and services.